{"data":{"norad_id":68919,"intl_designator":"2026-098A","name":"KUIPER-00370","alt_names":[],"object_type":"PAYLOAD","status":"ACTIVE","operator":null,"country":"US","launch_date":"2026-04-30","launch_site_code":"FRGUI","launch_vehicle":null,"mission":null,"orbit_class":"UNKNOWN","rcs_meters":null,"size_class":null,"mass_kg":null,"dimensions":null,"purposes":[],"wikipedia_slug":null,"has_3d_model":false,"image_url":null,"decayed_at":null,"tle_current":{"epoch":"2026-05-24T12:10:16.670496Z","epoch_age_seconds":113775,"freshness":"FRESH","line1":"1 68919U 26098A   26144.50713739 -.00007095  00000+0 -22309-3 0  9991","line2":"2 68919  51.8727 182.2803 0015293  68.9168 291.3450 15.30642553  3705","mean_motion":15.30642553,"eccentricity":0.0015293,"inclination_deg":51.8727,"raan_deg":182.2803,"arg_perigee_deg":68.9168,"mean_anomaly_deg":291.345,"bstar":-0.00022309,"rev_number":370,"period_min":94.07813713121,"perigee_km":463.41519330249,"apogee_km":484.3728153323,"semimajor_km":6852.0310043174,"source":"CELESTRAK","updated_at":"2026-05-25T13:38:08.791984Z"}}}